Regional Weather Roundup
Issued by NWS

Home | Current Version | Previous Version | Text Only | Print | Product List | Glossary Off
Versions: 1 2 3 4 5 6 7 8 9 10 11 12 13 14 15 16 17 18 19 20 21 22 23 24 25 26 27 28 29 30 31 32 33 34 35 36 37 38 39 40 41 42 43 44 45 46 47 48 49 50

000
ASUS43 KDMX 012207
RWRIA

WEATHER ROUNDUP FOR IOWA
NATIONAL WEATHER SERVICE DES MOINES IA
500 PM CDT MON JUN 01 2015

NOTE: "FAIR" INDICATES FEW OR NO CLOUDS BELOW 12,000 FEET WITH NO
SIGNIFICANT WEATHER AND/OR OBSTRUCTIONS TO VISIBILITY.

* - THESE STATIONS ARE NOT NWS STATIONS...THUS NOT UNDER NWS
QUALITY CONTROL.  THEY ALSO DO NOT REPORT WEATHER SUCH
AS PRECIPITATION OR FOG.

IAZ001>003-012>014-020>022-031>034-043>046-012300-
   NORTHWEST IOWA

CITY           SKY/WX    TMP DP  RH WIND       PRES   REMARKS
CARROLL *      SUNNY     72  48  43 S10G18    30.10F
CHEROKEE *     SUNNY     75  46  35 SE14      30.08S
DENISON *      SUNNY     73  50  43 S12G18    30.07F
LE MARS *      SUNNY     77  50  38 SE15G21   30.06F
ORANGE CITY *  SUNNY     75  48  38 S15       30.06F
SHELDON *      SUNNY     77  46  33 SE17G26   30.05F
SIOUX CITY     SUNNY     77  50  38 S14G22    30.05F
SPENCER        SUNNY     75  47  36 S14       30.09F
$$

IAZ055>058-069>071-079>083-090>094-012300-
   SOUTHWEST IOWA

CITY           SKY/WX    TMP DP  RH WIND       PRES   REMARKS
ATLANTIC *     SUNNY     72  48  43 SE9G16    30.10F
AUDUBON *      SUNNY     72  50  46 SE6       30.12F
CLARINDA *     SUNNY     72  52  49 S8        30.12F
COUNCIL BLFS * SUNNY     73  54  49 S13       30.09F
CRESTON *      SUNNY     70  50  49 SE9G18    30.13S
HARLAN  *      SUNNY     73  48  40 SE14      30.13F
LAMONI         SUNNY     73  52  47 S6        30.13F
RED OAK *      SUNNY     72  52  49 SE8G14    30.10F
SHENANDOAH *   SUNNY     73  50  43 SE12      30.10F
$$

IAZ047>049-059>061-072>074-084-012300-
   CENTRAL IOWA

CITY           SKY/WX    TMP DP  RH WIND       PRES   REMARKS
AMES           SUNNY     72  41  32 SE8       30.12F
ANKENY *       SUNNY     72  46  40 S8        30.13S
CHARITON *     PTSUNNY   68  54  60 SE7G14    30.14S
DES MOINES     MOSUNNY   72  44  36 S6        30.13F
GRINNELL*      PTSUNNY   70  50  49 SE8       30.15F
KNOXVILLE *    MOSUNNY   70  50  49 SE7G13    30.13S
MARSHALLTOWN   SUNNY     69  47  45 E8        30.14F
PELLA *        PTSUNNY   72  57  60 SE10      30.15S
PERRY *          N/A     72  41  33 S8        30.11F
$$

IAZ004>006-015-016-023>025-035-036-012300-
   NORTH CENTRAL IOWA

CITY           SKY/WX    TMP DP  RH WIND       PRES   REMARKS
ALGONA *       SUNNY     72 -35   1 SE12      30.12F
CLARION *      SUNNY     72  34  25 E14       30.13S
ESTHERVILLE    SUNNY     71  46  40 S17       30.10F
FORT DODGE *   SUNNY     72  45  37 S8        30.13F
MASON CITY     MOSUNNY   71  38  29 S14       30.15F
FOREST CITY *  SUNNY     64  36  34 E7        30.14F
IOWA FALLS *     N/A     72  36  26 E5        30.15F
$$

IAZ007>011-017>019-026>030-037>042-050>054-066-012300-
   NORTHEAST IOWA

CITY           SKY/WX    TMP DP  RH WIND       PRES   REMARKS
CEDAR RAPIDS   SUNNY     70  41  34 SE9       30.15S
CHARLES CITY * SUNNY     70  37  30 SE13      30.16F
CLINTON *      SUNNY     70  45  40 E8        30.19S
DECORAH *      SUNNY     66  41  39 E13       30.17F
DUBUQUE        SUNNY     67  40  37 E7        30.18F
MONTICELLO *   SUNNY     68  37  32 E8G14     30.17S
OELWEIN *      SUNNY     70  36  28 SE8G17    30.17S
WATERLOO       SUNNY     71  43  36 SE13      30.14F
$$

IAZ064-065-067-068-078-012300-
   EAST CENTRAL IOWA

CITY           SKY/WX    TMP DP  RH WIND       PRES   REMARKS
DAVENPORT      SUNNY     70  47  43 SE7       30.16F
IOWA CITY      SUNNY     71  46  40 VRB5      30.15F
MT. PLEASANT * PTSUNNY   72  50  46 SE8       30.15S
MUSCATINE *    MOSUNNY   72  50  46 SE8       30.15S
QUAD CITIES    PTSUNNY   71  49  45 VRB6      30.15F
$$

IAZ062-063-075>077-085>089-095>099-012300-
   SOUTHEAST IOWA

CITY           SKY/WX    TMP DP  RH WIND       PRES   REMARKS
BURLINGTON     CLOUDY    69  55  60 SE9       30.14F
FAIRFIELD *    PTSUNNY   70  52  52 SE6G13    30.15S
FORT MADISON *   N/A     66  55  68 SE6       30.16S
KEOKUK *       CLOUDY    68  57  68 SE9       30.14F
OSKALOOSA *    CLOUDY    68  50  52 E5        30.15S
CENTERVILLE *  CLOUDY    63  63 100 SE5       30.17S
OTTUMWA        CLOUDY    68  53  58 E7        30.14F
WASHINGTON *   CLOUDY    72  50  46 SE8       30.16S
$$

ABBREVIATIONS USED IN REMARKS
   TC - TEMPERATURES IN CELSIUS
  WCI - WIND CHILL INDEX
   HX - HEAT INDEX
  VSB - VISIBILITY
$$



USA.gov is the U.S. government's official web portal to all federal, state and local government web resources and services.